Temp
-11 -11 -10 -9 -10 -10 -10 -9 -10 -10 -10 -10 -11 -10 -9 -11 -12 -11 -11 -10 -10 -10 -10 -10 -10 -11 -9 -9 -10 -10 -10 -11 -11 -12 -12 -12 -12 -13 -12 -12 -12 -12 -12 -12
-11 -10 -9 -10 -10 -10 -10 -10 -10 -10 -10 -10 -13 -12 -9 -11 -10 -11 -11 -9 -8 -10 -11 -12 -10 -10 -9 -10 -10 -10 -10 -11 -12 -12 -12 -12 -12 -11 -11 -11 -12 -12 -12 -12
-11 -9 -11 -10 -10 -10 -10 -10 -9 -10 -11 -10 -12 -10 -10 -9 -10 -12 -10 -9 -10 -10 -10 -10 -10 -9 -10 -10 -10 -10 -10 -11 -12 -12 -12 -12 -11 -11 -11 -11 -11 -12 -12 -12
-11 -10 -10 -10 -10 -10 -10 -9 -10 -10 -10 -10 -12 -12 -8 -8 -9 -10 -9 -10 -10 -10 -10 -9 -10 -8 -10 -11 -10 -10 -11 -11 -11 -12 -12 -11 -11 -11 -11 -11 -11 -12 -12 -12
-10 -10 -10 -10 -8 -10 -9 -13 -11 -11 -11 -12 -12 -12 -5 -9 -9 -9 -10 -10 -10 -10 -10 -10 -10 -9 -11 -11 -10 -11 -11 -11 -12 -12 -11 -11 -11 -11 -11 -11 -12 -12 -12 -12
-11 -12 -11 -10 -10 -11 -10 -12 -12 -12 -12 -14 -8 -11 -6 -8 -9 -9 -10 -10 -10 -10 -10 -11 -9 -11 -11 -11 -11 -11 -11 -12 -12 -11 -11 -11 -11 -11 -11 -12 -12 -12 -12 -12
-13 -13 -11 -11 -10 -10 -12 -11 -12 -13 -12 -9 -10 -10 -7 -8 -9 -10 -10 -9 -9 -10 -12 -11 -10 -11 -11 -11 -11 -11 -11 -12 -11 -11 -11 -11 -11 -11 -12 -12 -12 -12 -12 -13
-17 -14 -13 -11 -10 -10 -11 -12 -11 -10 -9 -8 -10 -8 -8 -10 -10 -9 -9 -8 -9 -10 -10 -10 -11 -11 -11 -11 -11 -11 -12 -11 -11 -11 -11 -11 -11 -11 -12 -11 -12 -12 -12 -12
-20 -17 -14 -14 -12 -12 -10 -16 -9 -13 -12 -13 -11 -11 -9 -10 -10 -9 -9 -9 -10 -9 -9 -11 -10 -11 -11 -11 -11 -12 -12 -11 -11 -11 -11 -11 -11 -12 -12 -11 -12 -12 -12 -12
-21 -19 -16 -13 -14 -13 -14 -11 -14 -13 -13 -13 -11 -11 -11 -11 -11 -10 -9 -10 -10 -9 -10 -10 -11 -11 -11 -11 -11 -12 -11 -11 -11 -11 -11 -11 -11 -11 -11 -11 -11 -12 -12 -12
-21 -21 -18 -17 -16 -14 -13 -14 -14 -13 -13 -12 -11 -11 -11 -11 -11 -9 -10 -10 -10 -10 -10 -10 -11 -11 -11 -11 -11 -11 -11 -11 -11 -11 -11 -11 -11 -11 -11 -11 -11 -12 -11 -11
-22 -21 -19 -18 -19 -18 -17 -16 -15 -13 -11 -13 -13 -11 -11 -11 -11 -10 -10 -10 -9 -10 -10 -10 -10 -11 -11 -11 -11 -10 -11 -11 -11 -11 -11 -11 -11 -11 -11 -11 -11 -12 -11 -11
-21 -20 -19 -20 -19 -18 -18 -17 -15 -14 -15 -13 -12 -11 -12 -11 -10 -11 -11 -10 -9 -10 -10 -10 -11 -11 -11 -11 -10 -10 -11 -11 -11 -11 -11 -11 -11 -11 -11 -11 -11 -12 -12 -11
-21 -20 -20 -19 -19 -18 -17 -17 -16 -15 -15 -13 -13 -12 -11 -11 -11 -11 -12 -10 -10 -10 -10 -10 -11 -11 -11 -11 -10 -11 -11 -11 -11 -11 -11 -11 -11 -11 -11 -11 -11 -12 -12 -11
-21 -20 -20 -20 -18 -17 -16 -17 -16 -15 -14 -13 -13 -12 -12 -12 -11 -11 -10 -10 -11 -10 -11 -11 -12 -11 -11 -10 -11 -10 -11 -11 -11 -11 -11 -11 -11 -11 -11 -11 -11 -11 -12 -12
-20 -20 -20 -20 -18 -17 -16 -16 -16 -15 -14 -13 -12 -12 -12 -12 -11 -10 -11 -10 -11 -11 -11 -12 -12 -11 -11 -10 -10 -10 -11 -11 -11 -11 -11 -11 -11 -11 -11 -11 -11 -11 -12 -12
-20 -21 -20 -19 -17 -17 -16 -16 -16 -15 -14 -12 -12 -12 -12 -11 -13 -11 -11 -11 -11 -12 -12 -12 -12 -11 -11 -11 -10 -10 -11 -11 -11 -11 -11 -11 -11 -12 -11 -11 -11 -11 -11 -12
-21 -21 -20 -19 -17 -16 -15 -15 -15 -15 -14 -13 -13 -12 -13 -12 -14 -11 -12 -12 -12 -12 -12 -12 -12 -11 -11 -11 -11 -11 -11 -11 -11 -11 -11 -11 -11 -12 -12 -12 -11 -11 -11 -12
-20 -20 -20 -19 -18 -15 -16 -16 -15 -15 -14 -14 -13 -13 -14 -14 -13 -13 -12 -12 -13 -12 -13 -12 -12 -11 -11 -11 -11 -11 -11 -11 -11 -11 -11 -11 -11 -11 -11 -12 -11 -11 -11 -11
-20 -21 -20 -18 -18 -15 -14 -15 -15 -15 -15 -13 -13 -14 -13 -14 -13 -13 -12 -12 -12 -12 -13 -12 -12 -11 -11 -11 -11 -11 -11 -11 -11 -11 -11 -11 -11 -11 -11 -12 -12 -12 -11 -11
-20 -20 -19 -20 -17 -15 -15 -15 -14 -15 -14 -14 -14 -14 -14 -12 -12 -13 -12 -12 -12 -12 -12 -13 -12 -11 -11 -11 -11 -11 -11 -11 -11 -11 -11 -11 -11 -11 -11 -12 -12 -12 -11 -11
-20 -20 -20 -20 -18 -18 -16 -15 -15 -15 -14 -15 -15 -14 -14 -12 -12 -11 -13 -12 -12 -12 -11 -12 -12 -11 -11 -11 -11 -11 -11 -11 -11 -11 -11 -11 -11 -12 -12 -11 -12 -12 -12 -12
-20 -19 -19 -19 -19 -18 -16 -16 -15 -14 -15 -14 -14 -13 -13 -13 -12 -12 -12 -12 -12 -13 -12 -12 -12 -12 -11 -11 -11 -11 -11 -11 -11 -11 -11 -11 -11 -12 -12 -12 -12 -12 -12 -12
-20 -20 -20 -19 -18 -17 -17 -16 -15 -16 -15 -14 -14 -14 -14 -13 -13 -13 -13 -12 -13 -13 -13 -13 -12 -12 -12 -11 -11 -11 -11 -11 -12 -11 -12 -12 -12 -12 -12 -12 -12 -12 -12 -12
-20 -20 -19 -19 -18 -18 -17 -17 -16 -16 -16 -15 -15 -14 -13 -13 -12 -13 -13 -13 -13 -13 -13 -13 -12 -12 -12 -12 -12 -11 -11 -11 -11 -12 -12 -12 -12 -12 -12 -12 -12 -12 -12 -12
-20 -20 -19 -19 -19 -18 -18 -18 -17 -17 -16 -15 -15 -14 -14 -13 -13 -14 -13 -13 -13 -13 -13 -13 -13 -13 -12 -12 -12 -12 -11 -11 -11 -11 -11 -12 -12 -12 -12 -12 -12 -12 -12 -12
Height
5715 5713 5725 5743 5749 5756 5760 5761 5760 5766 5774 5774 5772 5775 5783 5782 5783 5783 5784 5781 5782 5783 5781 5780 5782 5779 5785 5780 5780 5779 5778 5775 5774 5772 5771 5769 5765 5764 5761 5757 5754 5749 5743 5738
5694 5706 5733 5733 5741 5742 5747 5746 5748 5760 5766 5769 5767 5766 5770 5771 5773 5774 5775 5774 5775 5774 5771 5772 5774 5772 5776 5773 5774 5774 5773 5770 5768 5767 5765 5762 5760 5757 5754 5750 5746 5742 5737 5733
5675 5714 5711 5719 5724 5725 5732 5736 5748 5751 5759 5759 5757 5755 5759 5767 5766 5767 5766 5770 5764 5762 5763 5766 5766 5766 5767 5766 5768 5769 5767 5765 5763 5762 5759 5755 5753 5750 5748 5744 5738 5736 5729 5723
5665 5692 5696 5700 5709 5715 5722 5736 5738 5745 5748 5745 5752 5743 5753 5760 5759 5759 5761 5758 5756 5756 5758 5757 5756 5758 5759 5761 5763 5763 5761 5760 5759 5756 5753 5750 5747 5744 5741 5736 5731 5728 5725 5719
5670 5674 5674 5683 5702 5704 5717 5723 5730 5735 5733 5734 5738 5741 5747 5754 5751 5755 5751 5750 5751 5751 5749 5749 5747 5752 5753 5756 5757 5757 5756 5755 5754 5751 5748 5745 5742 5739 5734 5730 5726 5721 5716 5712
5647 5651 5657 5677 5683 5688 5705 5711 5718 5722 5724 5720 5736 5736 5737 5746 5749 5745 5745 5745 5744 5742 5743 5742 5741 5747 5750 5752 5753 5753 5752 5751 5748 5745 5743 5741 5736 5732 5730 5726 5722 5717 5713 5707
5624 5628 5647 5655 5666 5679 5685 5696 5704 5709 5709 5713 5733 5731 5728 5742 5743 5736 5738 5738 5736 5737 5738 5733 5741 5743 5746 5748 5748 5748 5748 5745 5743 5741 5739 5736 5732 5728 5724 5721 5717 5713 5709 5703
5599 5610 5629 5648 5654 5666 5671 5683 5690 5695 5706 5713 5723 5718 5728 5732 5733 5729 5729 5729 5730 5732 5731 5733 5737 5740 5743 5744 5744 5744 5742 5740 5739 5738 5735 5731 5728 5724 5721 5718 5713 5709 5706 5701
5587 5595 5617 5627 5639 5648 5661 5664 5692 5694 5703 5707 5716 5717 5718 5725 5726 5724 5723 5724 5726 5727 5730 5732 5734 5738 5739 5740 5741 5739 5738 5736 5736 5734 5731 5728 5724 5721 5718 5715 5711 5707 5704 5700
5580 5585 5596 5610 5624 5633 5642 5665 5672 5677 5688 5695 5708 5715 5719 5720 5722 5722 5721 5721 5723 5724 5726 5729 5733 5734 5735 5737 5736 5735 5734 5734 5732 5730 5728 5725 5721 5718 5714 5712 5709 5706 5703 5700
5573 5573 5592 5598 5602 5621 5633 5643 5655 5675 5683 5690 5700 5709 5719 5716 5714 5716 5720 5720 5721 5722 5724 5726 5729 5731 5733 5733 5733 5732 5731 5730 5729 5727 5725 5722 5718 5716 5713 5711 5708 5705 5702 5700
5565 5569 5578 5584 5598 5615 5625 5637 5648 5658 5672 5682 5697 5706 5709 5709 5714 5713 5717 5718 5718 5720 5722 5725 5726 5728 5730 5729 5729 5729 5728 5727 5726 5724 5722 5719 5717 5715 5713 5710 5707 5704 5702 5701
5560 5567 5571 5579 5589 5598 5607 5625 5638 5652 5672 5678 5690 5699 5702 5704 5707 5709 5712 5715 5716 5718 5720 5723 5724 5726 5726 5726 5727 5727 5725 5725 5723 5721 5719 5717 5715 5715 5713 5710 5707 5705 5703 5702
5558 5565 5567 5573 5584 5590 5600 5617 5630 5648 5659 5672 5684 5698 5696 5700 5705 5706 5705 5711 5714 5716 5718 5720 5722 5723 5724 5724 5725 5724 5723 5722 5721 5719 5718 5716 5714 5714 5712 5710 5707 5705 5703 5703
5556 5558 5557 5561 5568 5583 5593 5600 5626 5640 5653 5667 5681 5694 5693 5695 5700 5700 5703 5708 5710 5713 5716 5718 5720 5721 5722 5723 5723 5721 5721 5720 5719 5717 5716 5715 5714 5713 5711 5710 5707 5705 5703 5702
5550 5553 5552 5556 5565 5576 5583 5595 5610 5636 5652 5667 5677 5687 5689 5688 5692 5699 5701 5704 5708 5711 5713 5716 5717 5719 5720 5721 5721 5720 5719 5719 5718 5717 5716 5714 5712 5711 5710 5709 5706 5705 5702 5700
5549 5551 5552 5557 5562 5565 5579 5599 5608 5628 5647 5662 5669 5678 5679 5684 5686 5690 5696 5701 5705 5708 5711 5714 5715 5717 5718 5720 5719 5718 5718 5718 5717 5716 5715 5713 5713 5711 5709 5707 5706 5705 5703 5701
5549 5550 5554 5557 5562 5571 5590 5609 5619 5630 5643 5661 5659 5663 5669 5678 5680 5683 5688 5698 5703 5706 5709 5712 5714 5716 5717 5718 5717 5717 5717 5718 5717 5716 5716 5714 5714 5712 5710 5708 5706 5705 5703 5702
5549 5551 5556 5560 5567 5575 5590 5600 5615 5626 5638 5642 5650 5655 5664 5670 5675 5681 5686 5692 5698 5703 5707 5710 5713 5714 5715 5717 5717 5717 5717 5718 5717 5717 5716 5716 5716 5714 5712 5709 5708 5706 5704 5701
5550 5553 5557 5559 5566 5568 5578 5597 5596 5605 5618 5623 5633 5643 5651 5661 5666 5674 5681 5689 5693 5696 5702 5708 5710 5712 5715 5716 5717 5716 5717 5718 5718 5718 5717 5716 5717 5716 5714 5712 5710 5708 5705 5701
5550 5554 5558 5560 5567 5573 5581 5590 5600 5607 5615 5619 5622 5632 5647 5651 5660 5669 5676 5685 5692 5697 5701 5705 5709 5712 5714 5716 5717 5717 5717 5718 5719 5720 5719 5718 5718 5719 5717 5715 5713 5711 5707 5704
5557 5560 5563 5563 5565 5570 5580 5591 5599 5603 5608 5614 5623 5637 5648 5655 5661 5669 5675 5683 5690 5697 5698 5706 5708 5711 5713 5716 5717 5717 5718 5719 5720 5721 5721 5720 5720 5720 5719 5718 5717 5716 5713 5710
5558 5559 5562 5570 5572 5572 5578 5587 5593 5601 5607 5617 5626 5635 5644 5651 5658 5665 5675 5682 5688 5694 5700 5705 5707 5710 5712 5716 5717 5718 5719 5720 5721 5721 5722 5722 5722 5722 5722 5721 5721 5720 5720 5717
5560 5562 5565 5567 5571 5573 5574 5583 5590 5596 5607 5616 5623 5632 5637 5646 5653 5663 5671 5680 5686 5693 5700 5704 5706 5709 5711 5715 5717 5718 5719 5720 5722 5723 5723 5723 5724 5724 5725 5725 5725 5725 5725 5724
5561 5562 5564 5566 5567 5572 5577 5579 5589 5596 5603 5613 5621 5627 5634 5640 5646 5656 5667 5676 5684 5691 5697 5702 5704 5707 5710 5714 5716 5718 5719 5720 5722 5723 5724 5725 5726 5727 5727 5728 5729 5730 5730 5729
5561 5561 5565 5568 5570 5572 5574 5575 5586 5593 5600 5608 5616 5623 5628 5635 5643 5654 5663 5671 5680 5687 5694 5699 5703 5706 5709 5712 5715 5718 5719 5721 5722 5724 5725 5726 5728 5730 5731 5732 5733 5734 5734 5735
Wind_Speed
65 70 64 52 54 51 50 48 53 51 45 46 47 47 39 36 38 36 40 46 42 40 38 38 33 39 32 34 28 26 25 25 25 24 30 35 36 38 41 42 42 42 42 43
73 66 45 57 53 57 55 59 59 48 46 45 37 44 40 41 39 36 40 44 37 36 35 38 32 38 32 33 24 25 25 23 24 28 33 37 38 38 39 39 39 39 41 41
74 52 61 59 58 61 59 58 49 47 45 45 43 47 44 37 41 43 44 33 38 38 36 30 32 35 27 25 26 26 23 23 26 29 35 37 36 38 35 34 38 35 38 38
69 61 63 64 62 63 60 51 53 48 49 52 42 50 40 36 38 38 35 36 37 37 28 30 29 32 24 23 24 22 22 24 27 32 38 35 34 34 31 34 35 36 29 32
62 63 67 67 58 63 53 47 48 47 50 51 47 45 24 29 37 34 41 39 37 28 24 27 32 24 24 21 21 22 22 26 30 34 33 31 31 29 31 32 31 30 33 30
64 63 65 64 64 68 58 52 50 48 47 45 44 43 30 31 31 36 36 30 27 26 25 26 29 17 20 19 20 20 22 26 31 30 29 26 28 29 29 27 27 29 28 26
60 64 64 66 67 64 65 59 56 53 57 54 35 39 40 29 30 39 37 35 32 27 26 32 14 19 19 19 17 19 22 27 28 27 23 25 26 27 26 24 26 26 23 21
50 63 64 64 67 64 67 65 63 63 55 53 44 47 38 29 30 28 29 27 22 23 24 15 18 18 18 16 16 19 23 26 24 21 22 22 24 22 22 24 26 21 17 16
37 46 56 62 67 67 63 63 53 54 49 39 33 29 40 26 21 24 23 19 16 21 14 20 18 18 17 14 17 19 24 23 23 18 19 21 23 22 21 24 16 15 12 8
37 41 46 64 63 70 64 54 58 53 55 46 36 25 19 25 27 31 24 12 15 16 13 19 17 17 14 15 16 20 20 22 18 17 18 20 22 18 20 13 11 9 6 3
45 46 32 45 61 67 65 60 55 56 49 51 46 27 12 29 23 24 17 15 16 14 17 17 18 15 14 14 16 18 21 21 15 16 16 20 16 15 11 7 7 6 5 0
33 33 37 41 40 42 46 49 54 62 56 49 34 26 28 35 31 32 23 18 16 18 17 17 15 14 12 13 16 18 19 14 14 14 15 16 14 10 6 5 5 5 4 2
37 29 33 35 48 52 53 49 57 59 44 43 39 23 28 23 30 26 26 22 21 14 14 15 11 9 9 13 14 16 14 11 12 13 14 14 10 8 3 4 7 6 3 2
30 34 26 34 40 48 49 49 45 49 51 42 36 23 28 27 16 22 25 29 23 17 18 14 9 7 10 11 13 13 10 10 10 12 12 11 9 10 8 7 8 8 5 4
19 26 46 44 38 48 44 52 45 46 43 48 31 29 13 21 28 32 28 17 20 19 17 11 7 9 9 9 11 10 8 8 9 11 11 9 9 9 8 7 7 8 7 3
18 16 32 45 35 51 49 56 54 44 34 42 33 37 20 28 30 26 29 26 23 20 15 10 9 9 8 7 8 8 5 6 7 9 8 8 10 12 7 6 6 8 6 2
11 12 23 37 30 12 56 59 54 53 36 43 32 37 32 28 14 32 26 25 23 19 15 13 10 8 7 7 5 5 3 4 5 4 4 6 5 3 2 2 4 4 7 7
9 14 24 31 21 23 42 45 48 45 38 45 33 47 29 25 14 34 29 24 21 19 16 14 11 8 8 5 4 3 1 3 2 2 4 6 5 6 5 4 3 2 5 5
12 11 24 21 24 31 47 48 38 38 34 49 41 36 37 24 20 28 31 33 27 23 19 16 11 8 9 4 4 3 2 3 1 1 4 4 4 6 9 9 7 4 4 5
10 10 26 20 12 23 35 62 47 52 50 56 45 43 55 39 25 34 36 34 33 29 23 18 13 8 10 5 4 3 4 4 2 2 4 6 5 6 9 10 12 10 7 8
7 12 22 29 22 17 40 42 46 37 53 55 51 50 51 56 49 39 37 35 35 30 25 20 14 10 12 6 4 4 5 6 6 4 4 6 5 6 8 11 14 14 17 11
9 12 14 29 25 8 37 54 42 40 34 55 49 51 46 48 48 40 39 37 33 31 18 18 13 12 13 9 4 2 5 7 7 6 4 3 3 5 8 8 10 13 16 19
11 17 14 17 21 16 31 54 59 57 46 29 42 50 51 42 39 41 36 34 34 31 24 20 14 12 13 12 7 3 4 7 7 6 5 4 3 4 7 8 9 12 15 19
17 16 15 16 18 15 15 49 47 50 48 43 33 38 45 43 42 43 41 36 33 31 26 21 16 13 12 13 11 6 4 5 7 6 6 6 6 8 9 11 11 13 15 17
10 19 24 32 7 24 19 26 27 30 39 42 36 36 42 45 43 46 42 37 36 34 28 22 19 14 13 12 11 9 6 5 6 7 8 9 9 10 12 14 16 18 19 21
6 19 23 21 26 21 33 33 31 22 32 38 30 32 41 43 42 46 44 40 39 35 30 25 22 17 14 13 12 11 8 7 7 7 9 11 12 10 11 13 13 13 13 14
Wind_Direction
239 239 242 249 251 255 257 258 260 261 266 270 269 271 273 274 264 272 263 276 283 279 279 280 271 277 291 280 271 277 283 286 294 298 292 294 295 293 293 298 296 298 299 300
239 241 247 245 246 247 249 252 254 257 260 265 262 272 279 281 284 279 267 283 284 281 268 268 284 279 287 272 269 275 278 282 294 294 296 304 303 299 297 294 296 296 298 298
240 242 240 240 240 242 243 247 252 255 256 258 262 267 267 274 273 269 283 293 284 277 276 274 271 282 274 259 262 278 278 285 288 293 302 308 300 299 296 295 294 300 301 303
239 237 237 237 237 240 243 246 249 251 255 256 256 265 264 274 279 278 293 286 284 291 275 262 262 279 254 251 265 276 279 283 287 295 307 302 300 297 295 296 302 300 302 300
240 237 234 235 238 237 241 236 243 247 251 257 253 259 274 268 271 286 283 281 293 290 265 262 266 269 244 252 271 274 278 284 290 301 304 300 298 295 297 302 302 306 309 303
235 232 232 234 232 234 234 234 234 236 243 252 250 259 267 267 277 271 280 293 285 263 263 259 266 246 241 255 270 272 279 287 298 306 301 298 295 299 300 300 305 308 306 303
236 230 229 227 229 228 229 229 228 231 235 250 252 256 270 271 281 288 286 286 271 253 249 255 246 235 240 261 265 274 286 296 306 301 297 299 302 299 298 307 309 308 308 309
239 232 223 227 227 227 225 227 228 232 243 251 250 256 270 283 288 295 283 277 267 254 253 249 232 227 250 254 265 283 294 304 300 296 298 305 306 296 301 312 310 308 311 321
234 234 226 219 221 220 222 217 231 231 238 245 241 266 270 292 304 299 280 261 242 253 244 227 232 232 250 249 273 290 301 302 296 291 299 302 308 300 306 309 306 311 323 338
226 227 223 218 218 219 212 220 212 217 224 228 243 253 283 275 286 281 273 245 236 250 227 231 227 239 236 259 283 299 300 295 291 295 295 307 304 310 313 307 310 324 336 5
228 231 218 216 209 214 211 208 212 216 224 227 231 216 217 240 261 288 248 214 237 239 241 221 222 227 244 274 293 300 297 294 286 295 298 307 309 309 304 305 316 346 354 219
215 225 211 213 198 209 204 211 203 210 215 220 224 237 240 251 254 272 217 231 244 238 236 231 216 229 261 290 299 294 293 284 291 293 307 307 310 294 299 327 338 353 5 233
221 203 210 213 201 190 199 204 203 201 206 220 212 203 250 254 243 226 216 227 241 236 222 213 221 251 282 301 293 288 288 281 292 297 308 306 298 275 266 357 2 344 345 270
221 213 216 196 192 193 199 204 192 196 206 200 207 212 237 236 209 204 208 217 228 216 210 217 231 268 293 292 282 288 276 287 295 300 303 294 290 265 268 303 334 338 319 220
243 223 222 211 198 195 200 182 190 189 214 195 188 208 221 229 201 218 223 228 215 211 212 214 244 273 281 274 278 284 274 288 300 299 300 299 278 280 283 296 325 334 308 292
227 219 225 220 200 197 191 177 180 188 198 182 175 205 191 198 221 216 213 211 205 208 208 219 249 271 267 256 269 280 271 294 294 301 306 309 310 269 285 289 310 335 345 310
221 220 239 220 186 174 179 180 176 178 183 174 188 198 194 193 173 209 198 192 198 201 212 227 242 254 240 239 276 274 276 292 290 328 8 14 325 352 14 304 327 358 8 17
300 234 212 206 145 153 167 175 167 174 191 182 205 182 185 210 188 203 192 191 199 207 221 236 245 251 222 233 267 252 247 257 279 25 58 45 28 43 41 20 355 315 352 353
278 247 225 203 181 138 166 176 171 182 187 187 203 187 174 165 194 188 200 190 192 213 225 241 242 248 214 228 253 197 180 202 243 86 87 77 48 49 42 40 37 22 1 325
270 230 203 188 187 144 163 185 172 178 196 193 191 188 193 176 184 192 202 197 199 192 214 231 236 235 208 218 237 163 168 156 163 107 95 84 62 67 54 52 52 47 29 346
247 207 212 222 179 145 180 165 182 183 184 194 197 194 192 198 194 194 209 197 202 205 207 222 231 223 195 201 213 150 161 155 154 133 99 83 82 88 71 62 55 49 40 51
155 187 214 224 218 260 182 188 187 179 190 201 200 202 202 204 202 204 206 201 200 206 205 223 220 212 190 202 208 157 163 167 160 140 115 99 67 72 89 72 71 60 53 55
174 170 190 206 225 229 166 181 194 204 207 197 201 206 202 205 206 213 213 205 204 208 208 224 214 206 195 209 212 211 179 176 176 153 124 111 104 97 100 96 80 76 68 63
184 183 191 178 211 216 208 179 180 199 197 205 203 199 197 204 208 210 211 209 207 210 207 214 212 201 197 213 211 209 203 175 184 175 142 126 113 105 103 105 100 93 85 81
192 200 205 200 162 218 187 166 178 186 188 199 203 199 209 207 209 206 204 206 206 207 210 204 210 198 195 206 203 198 198 186 177 179 162 142 134 122 116 114 110 105 100 94
172 199 208 211 226 220 233 230 178 176 187 192 193 201 201 206 208 203 203 204 206 207 208 200 204 197 196 198 198 197 199 186 185 182 181 162 154 145 133 126 121 109 98 92